• En España
  • Lista de países
  • Para 7 días
  • Temperatura del agua
  • Mapa Satelital
  • El tiempo en el mapa
  • Informadores
  • user-avatar
    Iniciar sesión

    Tiempo cada hora La Massana

    Hoy, 19 Octubre, Viernes

    Tiempo Temperatura Precipitaciones Viento Presión Humedad
    00:00 +6°C° 0 mm 2 mps 610 mmHg 93%
    01:00 +6°C° 0.1 mm 2 mps 610 mmHg 93%
    02:00 +6°C° 0.1 mm 2 mps 610 mmHg 92%
    03:00 +6°C° 0.1 mm 2 mps 610 mmHg 92%
    04:00 +6°C° 0.1 mm 2 mps 611 mmHg 92%
    05:00 +6°C° 0.1 mm 2 mps 611 mmHg 92%
    06:00 +7°C° 0.1 mm 1 mps 611 mmHg 91%
    07:00 +8°C° 0.2 mm 1 mps 611 mmHg 88%
    08:00 +9°C° 0.2 mm 1 mps 612 mmHg 85%
    09:00 +10°C° 0.2 mm 1 mps 613 mmHg 81%
    10:00 +11°C° 0.4 mm 1 mps 613 mmHg 79%
    11:00 +11°C° 0.4 mm 1 mps 614 mmHg 77%
    12:00 +12°C° 0.4 mm 1 mps 614 mmHg 75%
    13:00 +11°C° 1.8 mm 1 mps 614 mmHg 78%
    14:00 +11°C° 1.8 mm 1 mps 613 mmHg 80%
    15:00 +10°C° 1.8 mm 1 mps 613 mmHg 83%
    16:00 +10°C° 2.1 mm 1 mps 613 mmHg 86%
    17:00 +9°C° 2.1 mm 1 mps 613 mmHg 88%
    18:00 +8°C° 2.1 mm 1 mps 613 mmHg 91%
    19:00 +8°C° 1 mm 1 mps 613 mmHg 91%
    20:00 +8°C° 1 mm 1 mps 613 mmHg 91%
    21:00 +8°C° 1 mm 1 mps 613 mmHg 91%
    22:00 +8°C° 0.4 mm 1 mps 613 mmHg 90%
    23:00 +7°C° 0.4 mm 1 mps 613 mmHg 90%

    Mañana, 20 Octubre, Sábado

    Tiempo Temperatura Precipitaciones Viento Presión Humedad
    00:00 +7°C° 0.4 mm 1 mps 613 mmHg 90%
    01:00 +7°C° 0.1 mm 1 mps 613 mmHg 90%
    02:00 +7°C° 0.1 mm 1 mps 613 mmHg 90%
    03:00 +7°C° 0.1 mm 1 mps 613 mmHg 89%
    04:00 +7°C° 0.1 mm 1 mps 613 mmHg 89%
    05:00 +7°C° 0.1 mm 1 mps 614 mmHg 89%
    06:00 +6°C° 0.1 mm 1 mps 614 mmHg 89%
    07:00 +8°C° 0.2 mm 1 mps 615 mmHg 85%
    08:00 +9°C° 0.2 mm 1 mps 616 mmHg 81%
    09:00 +11°C° 0.2 mm 1 mps 617 mmHg 77%
    10:00 +11°C° 0.5 mm 1 mps 617 mmHg 74%
    11:00 +12°C° 0.5 mm 1 mps 617 mmHg 71%
    12:00 +13°C° 0.5 mm 1 mps 618 mmHg 67%
    13:00 +13°C° 0.9 mm 1 mps 617 mmHg 69%
    14:00 +12°C° 0.9 mm 1 mps 617 mmHg 71%
    15:00 +12°C° 0.9 mm 1 mps 617 mmHg 74%
    16:00 +11°C° 0.8 mm 1 mps 616 mmHg 79%
    17:00 +9°C° 0.8 mm 0 mps 616 mmHg 84%
    18:00 +7°C° 0.8 mm 0 mps 615 mmHg 90%
    19:00 +7°C° 0.2 mm 0 mps 616 mmHg 90%
    20:00 +8°C° 0.2 mm 1 mps 616 mmHg 90%
    21:00 +7°C° 0.2 mm 1 mps 616 mmHg 90%
    22:00 +7°C° 0 mm 1 mps 615 mmHg 89%
    23:00 +7°C° 0 mm 1 mps 615 mmHg 88%

    Pasado mañana, 21 Octubre, Domingo

    Tiempo Temperatura Precipitaciones Viento Presión Humedad
    00:00 +6°C° 0 mm 1 mps 615 mmHg 87%
    01:00 +6°C° 0 mm 1 mps 615 mmHg 87%
    02:00 +6°C° 0 mm 1 mps 615 mmHg 86%
    03:00 +6°C° 0 mm 1 mps 615 mmHg 85%
    04:00 +6°C° 0 mm 1 mps 615 mmHg 85%
    05:00 +6°C° 0 mm 1 mps 615 mmHg 84%
    06:00 +6°C° 0 mm 1 mps 615 mmHg 84%
    07:00 +8°C° 0 mm 1 mps 616 mmHg 78%
    08:00 +9°C° 0 mm 0 mps 617 mmHg 72%
    09:00 +11°C° 0 mm 0 mps 618 mmHg 66%
    10:00 +12°C° 0 mm 0 mps 618 mmHg 63%
    11:00 +14°C° 0 mm 1 mps 618 mmHg 59%
    12:00 +15°C° 0 mm 1 mps 619 mmHg 56%
    13:00 +14°C° 0.1 mm 1 mps 618 mmHg 59%
    14:00 +14°C° 0.1 mm 1 mps 618 mmHg 62%
    15:00 +13°C° 0.1 mm 1 mps 617 mmHg 66%
    16:00 +12°C° 0 mm 1 mps 616 mmHg 72%
    17:00 +10°C° 0 mm 1 mps 616 mmHg 78%
    18:00 +9°C° 0 mm 1 mps 615 mmHg 85%
    19:00 +8°C° 0 mm 1 mps 615 mmHg 86%
    20:00 +8°C° 0 mm 1 mps 615 mmHg 87%
    21:00 +7°C° 0 mm 1 mps 615 mmHg 88%
    22:00 +7°C° 0 mm 1 mps 615 mmHg 87%
    23:00 +7°C° 0 mm 1 mps 615 mmHg 87%

    22 Octubre, Lunes

    Tiempo Temperatura Precipitaciones Viento Presión Humedad
    00:00 +7°C° 0 mm 1 mps 615 mmHg 87%
    01:00 +5°C° 0 mm 2 mps 614 mmHg 86%
    02:00 +5°C° 0 mm 2 mps 614 mmHg 85%
    03:00 +5°C° 0 mm 2 mps 614 mmHg 84%
    04:00 +4°C° 0 mm 2 mps 614 mmHg 82%
    05:00 +4°C° 0 mm 2 mps 613 mmHg 80%
    06:00 +4°C° 0 mm 2 mps 613 mmHg 78%
    07:00 +6°C° 0 mm 2 mps 614 mmHg 72%
    08:00 +8°C° 0 mm 2 mps 615 mmHg 66%
    09:00 +10°C° 0 mm 2 mps 616 mmHg 60%
    10:00 +12°C° 0 mm 2 mps 617 mmHg 55%
    11:00 +12°C° 0 mm 3 mps 617 mmHg 50%
    12:00 +13°C° 0 mm 3 mps 617 mmHg 44%
    13:00 +12°C° 0 mm 3 mps 617 mmHg 47%
    14:00 +12°C° 0 mm 3 mps 617 mmHg 49%
    15:00 +12°C° 0 mm 3 mps 616 mmHg 52%
    16:00 +9°C° 0 mm 3 mps 616 mmHg 61%
    17:00 +7°C° 0 mm 3 mps 615 mmHg 70%
    18:00 +4°C° 0 mm 3 mps 615 mmHg 79%
    19:00 +4°C° 0 mm 3 mps 615 mmHg 76%
    20:00 +3°C° 0 mm 3 mps 615 mmHg 74%
    21:00 +3°C° 0 mm 3 mps 615 mmHg 71%
    22:00 +2°C° 0 mm 3 mps 615 mmHg 70%
    23:00 +2°C° 0 mm 3 mps 615 mmHg 69%

    23 Octubre, Martes

    Tiempo Temperatura Precipitaciones Viento Presión Humedad
    00:00 +1°C° 0 mm 3 mps 615 mmHg 68%
    01:00 +1°C° 0 mm 3 mps 615 mmHg 68%
    02:00 +1°C° 0 mm 3 mps 615 mmHg 68%
    03:00 +1°C° 0 mm 3 mps 615 mmHg 68%
    04:00 0°C° 0 mm 3 mps 615 mmHg 69%
    05:00 0°C° 0 mm 3 mps 615 mmHg 70%
    06:00 0°C° 0 mm 3 mps 614 mmHg 71%
    07:00 +2°C° 0 mm 3 mps 615 mmHg 66%
    08:00 +4°C° 0 mm 3 mps 616 mmHg 61%
    09:00 +5°C° 0 mm 3 mps 617 mmHg 56%
    10:00 +7°C° 0 mm 3 mps 617 mmHg 52%
    11:00 +8°C° 0 mm 3 mps 617 mmHg 47%
    12:00 +8°C° 0 mm 4 mps 618 mmHg 43%
    13:00 +8°C° 0 mm 4 mps 617 mmHg 45%
    14:00 +7°C° 0 mm 4 mps 617 mmHg 47%
    15:00 +7°C° 0 mm 4 mps 616 mmHg 49%
    16:00 +5°C° 0 mm 4 mps 615 mmHg 58%
    17:00 +3°C° 0 mm 3 mps 615 mmHg 67%
    18:00 +1°C° 0 mm 3 mps 614 mmHg 76%
    19:00 +1°C° 0 mm 3 mps 614 mmHg 75%
    20:00 0°C° 0 mm 3 mps 615 mmHg 73%
    21:00 0°C° 0 mm 3 mps 615 mmHg 72%
    22:00 0°C° 0 mm 3 mps 615 mmHg 70%
    23:00 0°C° 0 mm 3 mps 615 mmHg 68%

    24 Octubre, Miércoles

    Tiempo Temperatura Precipitaciones Viento Presión Humedad
    00:00 -1°C° 0 mm 3 mps 614 mmHg 66%
    01:00 -1°C° 0 mm 3 mps 615 mmHg 65%
    02:00 -1°C° 0 mm 3 mps 615 mmHg 64%
    03:00 -1°C° 0 mm 3 mps 615 mmHg 63%
    04:00 -1°C° 0 mm 3 mps 615 mmHg 64%
    05:00 -1°C° 0 mm 3 mps 615 mmHg 64%
    06:00 -1°C° 0 mm 3 mps 615 mmHg 64%
    07:00 +1°C° 0 mm 3 mps 616 mmHg 59%
    08:00 +3°C° 0 mm 3 mps 617 mmHg 55%
    09:00 +5°C° 0 mm 3 mps 618 mmHg 51%
    10:00 +8°C° 0 mm 3 mps 618 mmHg 49%
    11:00 +9°C° 0 mm 3 mps 618 mmHg 47%
    12:00 +10°C° 0 mm 3 mps 619 mmHg 45%
    13:00 +10°C° 0 mm 3 mps 618 mmHg 47%
    14:00 +10°C° 0 mm 3 mps 618 mmHg 49%
    15:00 +10°C° 0 mm 3 mps 617 mmHg 51%
    16:00 +8°C° 0 mm 3 mps 617 mmHg 59%
    17:00 +5°C° 0 mm 3 mps 616 mmHg 66%
    18:00 +3°C° 0 mm 3 mps 615 mmHg 73%
    19:00 +3°C° 0 mm 3 mps 615 mmHg 73%
    20:00 +3°C° 0 mm 3 mps 615 mmHg 73%
    21:00 +3°C° 0 mm 3 mps 615 mmHg 73%
    22:00 +3°C° 0 mm 3 mps 615 mmHg 73%
    23:00 +3°C° 0 mm 3 mps 615 mmHg 73%
    Mostrar más